Temp
4 4 4 4 4 5 5 5 5 5 6 6 6 6 6 6 6 6 6 6 6 6 6 6 6 6 6 6 6 5 5 6 6 6 6 5 5 6 7 8 8 8 9 9 9 9 9
3 4 4 4 4 4 4 4 4 5 5 5 5 5 5 6 6 6 6 6 6 6 6 6 6 6 6 5 4 5 5 5 5 5 4 5 6 6 7 8 8 8 9 9 9 8 8
3 3 3 4 4 4 4 4 4 4 4 5 5 5 5 5 5 6 6 5 6 6 5 5 6 6 6 5 4 4 5 5 6 5 4 5 6 6 7 8 8 8 8 9 8 8 8
3 3 3 3 3 4 4 4 4 3 4 4 4 5 5 5 5 6 5 5 5 5 5 5 5 5 5 5 5 5 4 5 5 5 5 5 5 5 6 7 7 8 8 8 8 8 8
2 2 3 3 3 3 4 4 3 3 3 3 4 4 5 5 5 5 5 5 5 5 5 5 5 5 5 5 5 5 5 5 5 6 6 5 6 6 6 6 7 8 8 8 8 8 8
2 2 2 3 3 3 4 3 3 3 3 3 4 4 4 5 5 5 5 5 4 5 5 5 5 5 5 5 5 5 5 6 6 6 6 6 6 6 7 7 8 8 8 9 9 9 9
2 2 3 3 3 3 3 3 3 3 3 2 3 4 4 4 5 5 5 4 4 4 5 5 4 5 5 5 5 6 6 6 5 6 6 6 6 6 6 7 8 8 9 9 9 10 9
2 2 2 3 3 3 3 3 3 3 2 2 3 3 4 4 4 4 4 3 1 3 4 5 5 5 5 5 5 6 6 6 6 6 6 6 7 7 5 7 7 8 9 10 9 9 9
1 2 2 2 2 3 3 3 3 3 3 2 2 3 4 4 4 4 4 3 4 4 4 4 5 5 5 5 5 6 6 6 6 5 4 4 5 6 6 7 8 9 9 9 9 9 9
1 1 2 2 2 2 2 3 3 3 3 2 2 2 3 3 4 4 3 2 3 3 3 5 5 5 5 5 6 7 7 7 6 6 5 4 5 6 7 8 8 8 8 9 9 9 9
1 1 1 2 2 2 2 2 3 3 3 2 2 2 3 3 4 3 1 2 3 3 5 7 5 5 5 5 7 6 6 7 7 7 6 5 6 6 7 7 8 8 8 8 9 10 8
1 1 1 1 2 2 2 2 3 3 2 2 1 2 3 3 3 2 4 2 2 2 5 6 6 6 6 6 6 7 6 6 7 7 7 7 6 5 5 7 8 8 8 9 9 9 6
1 1 1 1 2 2 2 2 3 3 2 2 1 1 2 3 2 2 2 2 2 4 7 7 7 6 6 6 6 7 6 6 7 7 7 7 7 7 7 8 8 8 9 9 5 5 7
0 1 1 1 1 1 2 2 2 3 2 1 0 1 2 2 2 3 1 1 3 5 6 7 7 7 6 7 7 7 7 7 7 7 8 7 8 8 8 8 7 8 9 7 4 2 8
-3 -1 0 0 1 1 1 2 2 2 2 -0 -1 1 2 2 2 2 1 1 3 6 7 7 7 7 7 7 7 7 7 7 7 7 7 6 5 5 7 8 7 8 8 8 8 7 8
-9 -6 -3 -1 0 1 1 2 2 2 1 -2 -1 0 2 2 2 1 1 1 3 6 7 7 7 7 7 7 7 7 7 7 8 8 7 6 2 6 6 7 8 8 8 8 8 7 7
-11 -11 -10 -5 -2 -0 1 1 1 1 -0 -3 -1 -1 2 1 1 1 0 1 4 5 6 7 7 7 8 8 7 8 8 8 8 7 7 7 4 7 6 7 8 7 7 7 8 8 7
-11 -11 -11 -10 -9 -3 -1 0 1 0 -2 -2 -1 -1 1 0 0 1 -0 2 4 5 6 6 7 8 7 8 8 8 8 8 7 7 7 7 7 7 7 7 7 7 7 8 7 7 7
-11 -11 -11 -10 -9 -9 -8 -4 -1 -2 -3 -2 -1 -1 -1 0 0 0 0 1 3 4 6 5 6 7 7 7 8 7 8 7 6 7 6 7 6 7 7 7 7 7 7 7 7 7 6
-11 -11 -11 -11 -10 -9 -9 -8 -6 -3 -4 -2 -2 -2 -1 0 0 -0 1 2 3 5 6 5 6 6 7 7 7 7 7 6 6 6 6 6 6 7 7 8 7 7 7 7 7 6 6
-12 -12 -11 -10 -9 -8 -8 -8 -7 -5 -3 -3 -3 -1 -0 0 0 -0 1 2 3 4 5 6 6 6 6 6 7 6 6 6 6 5 5 5 5 6 7 7 6 6 7 7 7 7 6
-11 -11 -10 -10 -8 -8 -8 -8 -7 -5 -3 -4 -3 -2 -1 -0 -0 0 2 2 4 5 5 5 6 6 6 6 6 6 6 5 5 5 5 5 5 5 5 6 6 5 6 6 7 7 7
-11 -10 -10 -9 -8 -8 -8 -8 -8 -5 -3 -4 -2 -1 -0 0 1 1 2 2 4 5 5 5 5 6 6 6 6 5 5 5 5 5 5 4 5 4 4 4 5 5 6 6 6 6 7
-10 -9 -9 -9 -9 -8 -8 -8 -8 -7 -4 -4 -3 -1 -1 -0 1 1 2 3 4 5 5 5 5 6 6 6 5 5 5 5 5 4 4 4 4 4 4 4 3 6 6 6 6 6 6
-10 -10 -9 -9 -9 -8 -8 -7 -7 -6 -4 -4 -2 -1 -1 -1 2 1 2 3 4 5 5 5 5 5 6 5 5 5 4 4 4 4 4 3 3 3 3 3 4 5 6 5 5 5 5
-10 -10 -10 -10 -9 -8 -8 -7 -8 -6 -5 -3 -1 -1 -1 -1 1 2 3 3 4 5 3 4 4 4 5 4 4 4 4 4 4 2 3 3 2 2 2 2 2 4 5 5 5 4 2
-9 -9 -9 -9 -9 -9 -9 -7 -7 -6 -5 -3 -1 -1 -1 -0 1 2 3 3 4 4 2 4 4 4 4 4 4 3 4 4 4 3 2 2 2 2 2 2 3 4 3 4 3 2 2
-10 -9 -10 -10 -9 -9 -9 -7 -7 -5 -3 -2 -0 -1 -1 -1 1 1 3 3 3 2 3 4 4 4 4 4 3 3 3 4 4 4 3 3 3 2 1 1 1 3 3 2 2 2 2
-10 -10 -10 -9 -9 -8 -9 -6 -6 -4 -3 -2 -1 -1 0 1 0 2 2 3 3 2 3 3 4 4 4 4 3 3 3 3 3 3 3 3 3 2 3 3 2 2 2 1 1 2 1
Height
3108 3110 3112 3114 3116 3119 3122 3123 3125 3126 3127 3128 3128 3128 3129 3128 3127 3125 3124 3122 3119 3117 3115 3114 3114 3112 3113 3114 3116 3114 3114 3113 3112 3114 3116 3119 3122 3125 3125 3125 3127 3127 3127 3128 3127 3125 3127
3101 3103 3104 3106 3109 3111 3115 3117 3118 3120 3122 3123 3123 3124 3125 3124 3123 3122 3121 3119 3116 3115 3113 3113 3112 3111 3112 3114 3117 3115 3115 3114 3113 3113 3115 3121 3124 3126 3125 3124 3125 3126 3126 3127 3126 3128 3130
3095 3097 3098 3099 3102 3104 3107 3110 3112 3113 3115 3118 3119 3120 3121 3121 3120 3118 3118 3116 3113 3112 3110 3110 3110 3110 3110 3113 3114 3115 3115 3115 3115 3115 3119 3121 3124 3125 3125 3124 3124 3125 3126 3126 3126 3127 3129
3089 3091 3092 3094 3095 3097 3099 3103 3105 3108 3109 3111 3114 3115 3117 3117 3117 3116 3115 3113 3111 3110 3108 3109 3108 3109 3109 3112 3113 3114 3116 3116 3117 3116 3117 3119 3121 3121 3121 3122 3123 3125 3126 3126 3127 3128 3130
3082 3083 3085 3087 3089 3091 3093 3095 3098 3101 3103 3105 3108 3110 3112 3113 3113 3113 3112 3110 3109 3108 3107 3108 3109 3110 3111 3112 3113 3114 3115 3118 3117 3117 3117 3117 3118 3120 3122 3122 3123 3124 3126 3127 3128 3127 3129
3073 3076 3078 3080 3082 3085 3087 3089 3092 3094 3098 3101 3103 3105 3107 3109 3109 3109 3109 3108 3107 3107 3106 3107 3109 3114 3113 3113 3113 3115 3116 3116 3116 3116 3117 3117 3118 3119 3120 3123 3123 3125 3126 3125 3125 3126 3127
3062 3066 3070 3072 3075 3078 3081 3083 3085 3087 3091 3095 3097 3100 3102 3105 3106 3106 3107 3107 3109 3107 3104 3106 3108 3110 3114 3116 3114 3114 3116 3115 3117 3118 3119 3118 3119 3119 3117 3122 3123 3123 3123 3121 3122 3124 3125
3051 3055 3059 3063 3067 3069 3073 3077 3079 3081 3084 3088 3092 3095 3098 3101 3102 3103 3104 3105 3106 3104 3102 3103 3105 3106 3108 3110 3112 3113 3116 3117 3118 3118 3118 3120 3118 3120 3122 3123 3123 3122 3122 3119 3122 3122 3125
3037 3042 3048 3053 3058 3061 3065 3069 3072 3075 3077 3082 3086 3090 3094 3097 3098 3101 3101 3102 3101 3103 3103 3103 3102 3105 3108 3110 3111 3113 3115 3116 3114 3119 3119 3121 3119 3121 3121 3122 3121 3119 3119 3121 3121 3123 3124
3021 3027 3034 3041 3046 3052 3056 3060 3065 3068 3071 3075 3080 3085 3090 3092 3097 3097 3100 3100 3102 3103 3103 3103 3101 3103 3107 3109 3109 3111 3113 3116 3115 3118 3119 3117 3118 3119 3119 3120 3120 3117 3118 3120 3120 3122 3123
3002 3010 3019 3027 3034 3040 3046 3052 3056 3061 3064 3068 3074 3079 3085 3087 3092 3095 3095 3098 3101 3105 3104 3096 3099 3101 3105 3108 3108 3108 3111 3114 3115 3115 3119 3121 3116 3118 3117 3120 3119 3120 3118 3118 3120 3120 3120
2981 2991 3001 3010 3019 3027 3035 3041 3047 3052 3056 3061 3067 3073 3077 3083 3089 3090 3093 3098 3101 3106 3098 3096 3096 3100 3104 3105 3106 3105 3108 3111 3113 3115 3116 3116 3117 3113 3118 3116 3118 3118 3118 3118 3118 3117 3119
2959 2969 2981 2992 3001 3012 3021 3029 3038 3043 3048 3053 3060 3066 3073 3077 3085 3086 3092 3097 3100 3097 3092 3094 3095 3097 3101 3102 3104 3104 3106 3108 3111 3113 3113 3113 3111 3115 3115 3116 3116 3117 3116 3117 3122 3121 3114
2935 2947 2959 2971 2984 2995 3006 3016 3026 3033 3039 3045 3052 3059 3065 3072 3075 3082 3089 3095 3091 3087 3088 3089 3092 3096 3099 3099 3101 3102 3103 3105 3108 3109 3110 3110 3111 3114 3113 3115 3114 3115 3115 3118 3127 3130 3113
2909 2923 2935 2949 2964 2978 2990 3002 3013 3022 3029 3037 3044 3050 3056 3066 3071 3077 3084 3084 3080 3082 3084 3088 3090 3094 3096 3097 3098 3099 3100 3102 3104 3106 3108 3111 3113 3112 3112 3113 3114 3112 3114 3116 3116 3116 3113
2888 2900 2911 2927 2943 2959 2974 2987 3000 3011 3020 3028 3036 3042 3053 3061 3066 3072 3075 3073 3076 3077 3082 3084 3087 3089 3091 3094 3096 3096 3098 3099 3101 3103 3104 3106 3112 3109 3111 3111 3111 3112 3114 3114 3113 3114 3113
2876 2886 2894 2907 2923 2939 2955 2971 2985 2998 3009 3021 3031 3035 3048 3055 3059 3062 3058 3065 3071 3076 3081 3083 3084 3086 3087 3090 3092 3093 3095 3097 3098 3101 3104 3108 3109 3109 3109 3109 3109 3110 3110 3112 3113 3112 3111
2863 2873 2882 2893 2906 2921 2937 2954 2970 2984 3000 3015 3020 3026 3039 3045 3050 3050 3053 3061 3069 3072 3078 3081 3082 3083 3084 3086 3088 3091 3093 3094 3095 3100 3102 3105 3104 3104 3105 3106 3106 3107 3108 3109 3110 3112 3111
2852 2862 2871 2881 2894 2908 2922 2937 2953 2970 2988 3001 3008 3023 3031 3040 3036 3038 3051 3058 3064 3069 3074 3078 3079 3080 3082 3084 3086 3089 3091 3091 3092 3096 3099 3101 3103 3104 3104 3105 3104 3105 3106 3107 3108 3108 3109
2843 2852 2860 2870 2884 2898 2912 2926 2940 2958 2978 2992 3002 3014 3023 3025 3032 3039 3045 3051 3058 3064 3070 3074 3076 3078 3080 3081 3083 3087 3089 3089 3091 3093 3096 3099 3101 3101 3103 3102 3102 3101 3103 3104 3106 3106 3107
2836 2845 2852 2862 2874 2889 2903 2918 2930 2947 2968 2981 2991 2997 3005 3006 3015 3032 3043 3050 3054 3059 3065 3070 3072 3074 3078 3079 3081 3084 3087 3087 3089 3091 3094 3097 3098 3100 3099 3099 3100 3100 3100 3101 3101 3102 3104
2831 2838 2846 2856 2870 2883 2896 2911 2922 2939 2959 2968 2978 2992 3003 3006 3016 3028 3035 3039 3047 3055 3062 3064 3067 3070 3075 3077 3079 3082 3083 3084 3086 3089 3091 3093 3095 3096 3096 3097 3097 3097 3098 3098 3098 3098 3099
2827 2835 2842 2852 2864 2877 2891 2904 2916 2929 2945 2953 2971 2989 3000 3004 3009 3021 3022 3034 3043 3051 3058 3062 3065 3068 3072 3074 3073 3076 3079 3082 3084 3086 3088 3091 3092 3093 3094 3094 3094 3093 3092 3092 3092 3095 3096
2825 2833 2841 2850 2861 2874 2887 2901 2910 2921 2936 2950 2966 2987 2989 2995 3001 3003 3022 3031 3039 3044 3053 3058 3062 3063 3065 3068 3071 3075 3078 3081 3082 3084 3087 3088 3089 3091 3091 3092 3093 3089 3088 3088 3088 3090 3092
2824 2831 2840 2850 2859 2871 2883 2896 2906 2913 2931 2944 2966 2980 2985 2988 2997 3015 3021 3028 3037 3043 3047 3053 3054 3056 3061 3066 3070 3074 3076 3078 3079 3081 3082 3084 3085 3087 3089 3089 3088 3085 3087 3086 3086 3089 3087
2823 2832 2840 2848 2857 2868 2877 2889 2900 2907 2927 2947 2958 2971 2980 2985 2989 3004 3016 3024 3030 3037 3039 3042 3051 3053 3058 3063 3067 3070 3073 3075 3077 3077 3077 3079 3082 3085 3086 3087 3086 3084 3083 3084 3084 3087 3084
2822 2831 2839 2847 2856 2865 2873 2884 2893 2910 2926 2942 2957 2969 2979 2984 2993 3003 3010 3018 3027 3027 3035 3039 3046 3051 3055 3059 3063 3067 3069 3071 3072 3073 3073 3075 3077 3080 3082 3083 3082 3082 3080 3081 3084 3087 3081
2822 2830 2837 2845 2854 2862 2871 2880 2895 2912 2929 2940 2956 2963 2964 2978 2991 3001 3012 3017 3023 3025 3029 3036 3042 3046 3051 3057 3060 3062 3064 3067 3069 3070 3070 3072 3074 3076 3079 3080 3080 3078 3078 3081 3080 3078 3078
2821 2828 2836 2844 2851 2860 2867 2877 2901 2915 2929 2944 2955 2961 2969 2973 2985 2992 3002 3009 3017 3024 3026 3033 3040 3044 3049 3052 3056 3058 3060 3062 3064 3067 3069 3072 3072 3073 3075 3076 3075 3075 3075 3075 3073 3074 3073
Wind_Speed
35 36 34 33 32 32 31 30 29 27 26 25 23 23 23 22 23 23 24 23 22 25 22 17 13 10 9 6 8 11 8 5 4 5 6 4 7 8 10 10 11 15 10 12 10 5 4
30 33 35 34 34 32 33 32 30 28 27 25 25 23 23 22 22 22 23 22 22 22 18 14 13 10 8 6 1 9 1 2 4 6 7 7 5 6 11 9 12 11 12 6 8 6 3
28 28 29 32 35 34 34 34 32 29 27 26 25 23 24 22 22 21 22 21 20 18 14 12 10 8 9 7 10 3 0 1 2 3 2 5 7 5 3 6 11 6 8 9 6 8 4
32 30 29 27 29 33 34 34 34 32 29 27 25 23 24 21 21 21 21 20 17 14 10 9 8 8 7 10 8 5 4 4 5 5 8 7 12 13 10 6 6 9 10 5 6 10 6
35 34 32 30 28 27 32 35 34 34 30 27 25 23 23 20 20 20 19 17 13 11 7 7 6 6 7 10 10 1 3 4 6 4 5 8 10 7 7 8 7 10 9 9 9 12 14
40 38 36 34 31 29 28 31 35 34 32 29 26 23 22 20 20 19 17 13 8 9 7 5 5 4 7 6 4 6 5 5 2 3 2 4 3 6 5 12 11 8 15 15 9 10 16
45 42 40 37 36 34 30 30 31 34 32 30 27 24 21 20 19 17 14 8 3 7 9 6 5 6 5 5 16 10 7 4 3 3 5 3 6 10 8 7 12 12 8 18 14 12 10
51 48 45 42 40 38 35 32 30 32 33 31 29 26 21 20 18 17 12 9 2 13 10 12 12 19 13 12 9 10 10 7 8 6 4 6 13 14 9 8 11 12 12 6 9 8 11
57 54 50 47 44 42 40 36 33 31 34 33 30 27 22 20 18 15 12 12 13 8 10 8 13 21 9 10 14 13 13 10 15 10 10 9 7 16 14 9 13 13 5 11 9 9 11
63 60 56 52 48 45 43 41 36 32 34 34 32 28 23 22 18 13 8 13 10 6 5 9 16 18 13 13 14 11 17 11 9 12 5 7 8 11 8 11 10 12 9 8 10 13 12
68 65 61 58 53 49 46 44 40 36 35 36 34 29 25 24 17 15 18 16 10 7 4 9 14 9 13 17 7 18 13 13 8 7 12 6 9 13 15 10 5 1 5 6 10 11 7
73 69 66 62 58 54 51 47 43 39 36 39 37 31 30 25 18 23 16 16 12 6 7 9 15 14 15 16 14 9 19 17 6 9 10 9 12 3 2 9 4 4 5 8 9 12 4
78 74 70 67 63 58 54 50 46 43 39 41 39 35 31 27 21 26 21 19 10 13 6 12 16 15 18 16 17 15 16 21 15 10 12 8 7 8 6 7 5 6 8 7 9 7 4
76 76 72 71 68 62 57 52 50 48 44 43 41 39 35 30 30 28 27 24 14 11 20 3 14 16 19 16 16 15 15 23 22 19 12 7 16 12 11 9 3 11 9 3 5 5 8
69 73 75 72 70 66 62 57 54 53 48 46 44 42 41 33 32 35 33 30 21 14 19 12 13 19 20 18 11 14 17 21 21 21 16 8 9 2 6 7 4 5 5 6 6 7 5
60 65 76 75 73 70 66 62 58 56 51 48 46 47 40 35 37 39 37 35 25 20 7 16 18 19 20 19 16 15 16 17 20 17 21 10 13 20 9 11 9 9 8 5 3 2 4
49 50 53 74 76 75 71 67 63 60 55 47 44 47 40 39 42 45 44 35 23 19 15 11 19 17 18 17 17 15 14 11 13 9 17 11 26 10 5 6 9 7 9 11 10 9 1
53 55 53 58 70 77 77 73 68 63 58 47 49 50 44 46 49 52 41 36 27 20 18 16 16 17 17 16 16 16 16 17 14 13 10 11 7 9 12 7 8 10 7 11 10 8 6
52 52 52 60 59 60 64 71 73 66 64 53 52 45 32 46 57 47 44 33 30 23 19 20 18 14 14 15 13 15 13 11 12 12 10 9 7 13 15 8 11 15 14 14 10 10 10
48 49 50 55 57 57 53 53 50 64 67 52 52 42 36 48 57 44 50 34 32 27 20 20 18 15 14 15 15 12 14 13 11 13 17 15 10 14 13 13 5 14 12 14 15 12 14
44 44 45 51 49 56 55 53 48 64 70 53 53 53 46 55 62 45 38 31 32 30 27 21 20 20 16 14 16 12 14 12 16 17 16 17 14 14 18 19 7 9 9 10 16 19 20
34 37 40 41 48 57 52 52 52 71 72 58 62 43 44 16 52 46 42 43 36 32 26 23 21 21 18 13 15 13 14 14 11 16 16 15 9 12 13 12 13 15 15 16 17 17 19
34 33 35 44 43 50 50 53 54 78 71 66 61 47 29 37 45 52 52 41 36 30 27 22 23 19 20 16 14 13 11 12 8 11 16 10 10 6 7 9 10 14 19 18 21 19 18
31 35 33 37 41 44 46 51 60 68 70 63 59 47 27 39 38 65 45 35 33 35 24 24 22 19 23 21 15 12 11 14 14 12 10 11 10 10 6 6 1 11 8 11 9 10 11
28 28 35 37 37 37 47 50 63 64 62 65 49 40 30 38 42 48 39 39 33 31 25 23 22 24 25 20 16 11 12 12 11 13 14 11 11 10 6 9 11 15 8 6 4 4 3
30 32 36 38 37 43 46 50 57 65 62 74 51 41 26 39 46 52 40 37 36 34 29 32 27 20 19 19 13 9 7 10 8 4 13 14 14 12 8 4 4 3 8 8 4 4 3
35 36 39 40 40 46 45 51 67 60 70 68 54 29 35 35 33 47 45 42 31 32 27 31 31 24 22 18 15 10 11 9 8 9 8 12 16 16 12 7 6 7 11 13 4 4 8
35 37 37 37 45 46 43 57 66 59 80 57 53 28 38 24 34 46 37 39 27 28 32 32 30 25 22 16 15 10 10 13 9 7 8 6 8 10 12 6 8 10 7 3 9 10 14
29 30 34 35 35 37 43 54 57 77 71 51 38 32 29 19 38 45 41 43 33 25 29 30 27 23 22 18 13 11 11 14 15 8 11 8 9 5 9 1 7 7 11 12 15 18 20
Wind_Direction
259 257 252 250 252 255 257 260 263 265 267 271 273 278 285 288 293 301 303 306 313 316 311 302 296 289 274 245 230 300 329 304 240 192 193 182 219 219 238 242 233 232 255 243 265 333 136
265 261 257 253 249 248 251 254 257 260 263 265 269 275 281 285 291 299 301 306 315 313 306 298 289 285 257 185 157 300 38 52 114 165 147 184 187 235 268 248 221 224 233 245 252 211 188
267 268 266 259 253 248 248 250 251 254 257 262 266 273 280 283 290 298 299 307 313 310 302 288 285 273 244 196 169 266 44 87 71 114 159 177 220 236 227 248 218 237 220 249 248 207 219
264 264 266 267 262 254 248 248 250 251 252 256 262 268 275 280 287 295 297 306 311 304 292 278 270 253 227 196 187 157 262 317 325 250 190 222 221 242 229 247 232 218 240 184 213 194 173
260 261 263 264 265 262 254 248 247 248 249 250 255 261 269 275 281 289 294 303 306 297 287 268 257 241 158 198 175 77 261 256 294 264 252 244 228 218 236 242 211 211 211 190 186 223 204
258 258 259 261 262 263 260 255 248 247 247 248 250 255 263 269 277 283 292 295 305 288 267 243 228 185 237 173 177 197 192 225 227 8 344 281 209 214 218 216 243 172 209 208 211 205 213
258 258 256 256 259 260 261 259 252 244 244 244 247 250 255 262 270 276 285 277 289 294 256 211 184 151 124 197 214 185 215 194 161 106 277 282 204 199 239 204 195 193 239 241 208 191 193
256 257 254 252 253 257 257 259 256 246 240 239 242 245 247 254 263 269 268 234 224 253 254 215 217 180 198 203 206 192 214 194 191 207 210 281 214 204 236 225 223 241 226 201 165 198 202
254 254 253 251 250 251 254 254 255 250 240 234 237 241 242 246 254 263 251 223 234 241 257 249 219 202 199 231 207 200 210 206 205 255 273 283 215 218 263 234 236 246 231 206 185 183 209
252 252 251 249 248 248 249 251 252 249 239 232 231 234 234 239 242 243 229 206 213 230 257 237 208 217 212 217 220 213 213 222 204 198 224 310 178 226 206 219 253 279 342 216 248 194 222
248 248 247 246 245 246 246 248 247 245 239 231 228 227 227 231 235 206 198 198 185 182 269 197 205 215 208 211 208 205 200 208 229 210 220 217 223 232 244 200 296 28 245 239 239 243 212
247 245 244 243 242 241 241 241 242 241 236 229 223 221 221 224 220 211 217 185 175 186 241 172 177 184 201 213 212 233 209 194 253 231 213 267 237 226 162 199 261 198 215 246 259 257 186
246 243 242 240 238 237 235 236 234 235 232 227 221 218 217 214 196 200 191 183 182 218 213 203 200 202 206 208 209 202 200 204 212 212 206 220 217 212 181 196 224 206 231 235 11 339 246
242 243 239 238 237 234 232 230 227 229 226 220 218 216 212 206 203 192 187 189 213 221 216 202 197 202 209 203 209 209 209 208 215 225 230 219 216 211 218 223 233 247 253 331 168 216 295
232 233 234 232 232 231 228 226 223 223 221 213 216 214 211 200 200 189 191 204 204 211 207 205 196 204 211 211 208 206 213 212 216 224 241 264 219 293 170 225 227 4 287 271 292 216 325
227 225 226 225 223 223 224 221 218 218 214 209 215 215 206 199 197 194 199 208 213 207 266 199 205 205 207 207 203 204 204 213 219 220 232 228 295 218 237 231 250 254 287 314 273 297 268
219 222 223 219 217 215 215 215 213 213 208 203 214 215 200 197 196 197 208 210 200 215 234 215 209 207 213 202 211 207 208 205 204 220 220 235 211 172 187 243 241 225 251 238 268 257 28
216 223 220 216 216 213 210 208 207 207 197 200 209 210 201 197 197 202 208 207 203 207 219 221 227 218 211 214 205 217 223 216 214 211 214 218 254 268 256 246 224 242 272 226 223 264 229
218 224 223 215 210 214 209 205 204 200 190 196 204 199 211 201 204 203 203 210 211 217 218 214 222 220 207 214 210 213 223 204 192 202 216 226 233 255 267 242 257 246 248 244 250 225 241
218 220 222 215 211 202 203 198 197 194 184 192 198 185 201 202 208 203 202 206 208 207 214 216 212 208 208 205 202 213 218 225 222 219 223 222 230 246 241 249 298 208 237 236 231 225 239
217 222 222 213 203 197 202 194 192 189 182 188 187 196 190 202 203 199 205 202 204 208 211 213 211 206 200 195 194 212 211 228 242 234 225 227 242 250 253 256 275 274 264 249 242 242 240
216 218 203 198 198 196 200 196 193 183 180 186 188 186 206 210 199 191 195 202 202 203 205 206 205 200 199 198 199 208 218 216 222 218 222 227 239 250 257 257 270 271 264 260 260 258 255
195 205 200 189 191 192 198 197 191 181 184 185 187 178 197 206 202 191 198 201 199 199 207 208 201 198 202 203 187 194 201 214 215 214 209 207 236 235 252 245 257 273 269 272 259 255 258
184 191 193 184 184 189 195 197 191 191 185 189 178 179 200 198 202 197 193 195 196 197 201 194 201 204 201 210 201 216 231 210 203 189 197 213 220 219 235 232 262 266 250 249 247 249 261
184 183 183 187 185 189 192 192 199 196 182 186 165 190 210 198 199 192 194 194 195 197 203 187 198 204 199 203 212 216 211 209 219 235 232 211 212 212 203 214 271 282 256 241 261 258 240
176 183 184 185 188 189 191 194 206 197 185 175 170 188 203 190 194 186 188 191 191 198 189 187 191 184 189 193 186 185 193 219 194 213 220 215 204 211 207 209 223 274 254 256 263 241 226
185 186 186 191 193 192 194 193 202 193 181 170 170 171 198 199 192 183 187 188 188 194 186 183 191 191 195 197 195 186 202 198 175 194 214 209 210 214 218 229 255 249 256 266 235 213 264
188 192 196 198 191 194 200 193 197 179 170 168 169 180 167 156 180 181 185 190 189 193 187 182 179 187 193 192 193 184 203 203 215 205 230 223 195 210 205 224 255 239 263 223 218 236 265
192 190 195 197 182 195 202 191 187 172 166 167 173 167 166 192 170 179 190 187 192 187 204 202 205 211 209 207 200 201 196 203 213 204 218 217 223 203 219 280 249 217 226 278 271 284 290